DW9271 Weather Reports


Display with metric or nautical units.
time (UTC)temp
F
wind
direction
speed
MPH
gust
MPH
rain 1hr
in
rain 24hr
in
rain mn
in
humidity
%
barometer
mb
20260906160007 74 135 0.0 5.0 0.00 0.00 0.00 69 1019.5
20260906154503 74 84 1.0 5.0 0.00 0.00 0.00 73 1019.6
20260906153001 73 96 0.0 2.0 0.00 0.00 0.00 76 1019.5
20260906151600 73 96 0.0 4.0 0.00 0.00 0.00 77 1019.7
20260906144604 72 145 0.0 2.0 0.00 0.00 0.00 79 1019.4
20260906143055 71 161 0.0 3.0 0.00 0.00 0.00 82 1019.4
20260906141552 70 170 0.0 1.0 0.00 0.00 0.00 84 1019.5
20260906140047 69 144 0.0 2.0 0.00 0.00 0.00 88 1019.6
20260906134548 67 92 0.0 2.0 0.00 0.00 0.00 93 1019.6
20260906133039 66 92 0.0 2.0 0.00 0.00 0.00 96 1019.4
20260906131537 65 89 0.0 2.0 0.00 0.00 0.00 98 1019.3
20260906130034 63 86 0.0 0.0 0.00 0.01 0.00 98 1019.3
20260906124530 62 87 0.0 1.0 0.00 0.01 0.00 98 1019.2
20260906123034 59 86 0.0 0.0 0.00 0.01 0.00 97 1019.0
20260906121538 58 88 0.0 1.0 0.00 0.01 0.00 97 1019.1
20260906120027 58 88 0.0 0.0 0.00 0.01 0.00 96 1018.7
20260906114530 58 88 0.0 0.0 0.00 0.01 0.00 96 1018.5
20260906113039 59 88 0.0 0.0 0.00 0.01 0.00 95 1018.2
20260906111522 61 88 0.0 0.0 0.00 0.01 0.00 98 1018.0
20260906110019 58 88 0.0 0.0 0.00 0.02 0.00 96 1017.9
20260906104527 58 88 0.0 0.0 0.00 0.02 0.00 96 1018.0
20260906103016 58 88 0.0 0.0 0.00 0.02 0.00 96 1017.8
20260906101516 58 88 0.0 0.0 0.00 0.02 0.00 96 1018.2
20260906100018 59 88 0.0 0.0 0.00 0.02 0.00 96 1018.1
20260906094512 59 88 0.0 0.0 0.00 0.02 0.00 96 1017.8
20260906093011 59 88 0.0 0.0 0.00 0.02 0.00 96 1017.6
20260906091523 59 88 0.0 0.0 0.00 0.02 0.00 96 1017.6
20260906090010 59 88 0.0 0.0 0.00 0.02 0.00 96 1017.6
20260906084509 59 88 0.0 0.0 0.00 0.02 0.00 96 1017.5
20260906083013 59 88 0.0 0.0 0.00 0.02 0.00 96 1017.5
20260906081511 59 88 0.0 0.0 0.00 0.02 0.00 96 1017.4
20260906080005 58 88 0.0 0.0 0.00 0.02 0.00 96 1017.4
20260906074503 57 88 0.0 0.0 0.00 0.02 0.00 95 1017.6
20260906073002 58 88 0.0 0.0 0.00 0.02 0.00 95 1017.6
20260906071501 57 88 0.0 0.0 0.00 0.02 0.00 95 1017.4
20260906070059 57 88 0.0 0.0 0.00 0.02 0.00 94 1017.3
20260906064558 58 88 0.0 0.0 0.00 0.02 0.00 94 1017.3
20260906063058 58 88 0.0 0.0 0.00 0.02 0.00 94 1017.1
20260906061607 58 88 0.0 0.0 0.00 0.02 0.00 94 1017.2
20260906060056 58 88 0.0 0.0 0.00 0.02 0.00 94 1017.2
20260906054557 58 88 0.0 0.0 0.00 0.02 0.00 93 1017.1
20260906053051 58 88 0.0 0.0 0.00 0.02 0.00 93 1016.8
20260906051600 58 88 0.0 0.0 0.00 0.02 0.00 93 1016.7
20260906050148 58 88 0.0 0.0 0.00 0.02 0.00 92 1016.5
20260906044546 59 88 0.0 0.0 0.00 0.02 0.02 91 1016.8
20260906043043 59 88 0.0 0.0 0.00 0.02 0.02 91 1016.6
20260906041543 60 88 0.0 0.0 0.00 0.02 0.02 91 1016.5
20260906040044 60 88 0.0 0.0 0.00 0.02 0.02 90 1016.4
20260906034537 61 88 0.0 0.0 0.00 0.02 0.02 90 1016.3
20260906033044 61 88 0.0 0.0 0.00 0.02 0.02 89 1016.2
20260906031533 61 88 0.0 0.0 0.00 0.02 0.02 88 1016.1
20260906030030 62 88 0.0 0.0 0.00 0.02 0.02 88 1016.1
20260906024528 63 88 0.0 0.0 0.00 0.02 0.02 88 1016.0
20260906023026 63 88 0.0 0.0 0.00 0.02 0.02 87 1016.2
20260906021526 64 88 0.0 0.0 0.00 0.02 0.02 88 1016.1
20260906020025 64 88 0.0 1.0 0.00 0.02 0.02 88 1016.1
20260906014523 64 88 0.0 0.0 0.00 0.02 0.02 86 1016.1
20260906013020 65 88 0.0 0.0 0.00 0.02 0.02 85 1015.8
20260906011515 67 88 0.0 0.0 0.00 0.02 0.02 83 1016.0
20260906010012 67 88 0.0 1.0 0.00 0.02 0.02 81 1015.8
20260906004509 68 88 0.0 1.0 0.00 0.02 0.02 80 1015.5
20260906003007 70 88 0.0 0.0 0.00 0.02 0.02 77 1015.6
20260906001505 72 88 0.0 1.0 0.00 0.02 0.02 73 1015.6
20260906000005 73 88 0.0 1.0 0.00 0.02 0.02 73 1015.4
20260905234505 74 91 0.0 3.0 0.00 0.02 0.02 72 1015.4
20260905233002 75 90 1.0 4.0 0.00 0.02 0.02 71 1015.6
20260905231502 76 70 0.0 3.0 0.00 0.02 0.02 71 1015.6
20260905230001 76 36 0.0 8.0 0.00 0.02 0.02 71 1015.6
20260905224607 76 319 1.0 6.0 0.00 0.02 0.02 72 1015.4
20260905223059 76 309 1.0 6.0 0.00 0.02 0.02 73 1015.3
20260905221604 76 360 0.0 5.0 0.00 0.02 0.02 74 1015.3
20260905220105 75 91 1.0 4.0 0.00 0.02 0.02 76 1015.2
20260905214554 74 52 0.0 3.0 0.00 0.02 0.02 78 1015.5
20260905213054 75 337 0.0 5.0 0.00 0.02 0.02 78 1015.4
20260905211616 74 360 0.0 5.0 0.00 0.02 0.02 81 1015.5
20260905210054 74 90 0.0 4.0 0.00 0.02 0.02 84 1015.4
20260905204555 73 344 0.0 4.0 0.00 0.02 0.02 84 1015.4
20260905203110 73 43 0.0 3.0 0.00 0.02 0.02 84 1015.2
20260905201547 74 17 0.0 3.0 0.00 0.02 0.02 84 1015.2
20260905200054 74 42 0.0 6.0 0.00 0.02 0.02 84 1015.3
20260905194543 73 99 1.0 5.0 0.00 0.02 0.02 85 1015.3
20260905193043 73 51 0.0 0.0 0.00 0.02 0.02 85 1015.4
20260905191543 73 51 0.0 4.0 0.00 0.02 0.02 84 1015.3
20260905190039 72 60 0.0 2.0 0.00 0.02 0.02 87 1015.4
20260905184537 72 60 0.0 3.0 0.00 0.02 0.02 87 1015.5
20260905183035 72 59 0.0 3.0 0.00 0.02 0.02 89 1015.6
20260905181545 72 51 0.0 2.0 0.00 0.02 0.02 89 1015.5
20260905180033 72 94 0.0 4.0 0.00 0.02 0.02 90 1015.4
20260905174541 71 92 0.0 4.0 0.00 0.02 0.02 91 1015.5
20260905173034 71 82 0.0 6.0 0.00 0.02 0.02 90 1015.5
20260905171539 71 50 0.0 4.0 0.00 0.02 0.02 92 1015.5
20260905170027 71 94 1.0 4.0 0.00 0.02 0.02 93 1015.7
20260905164533 71 89 0.0 5.0 0.00 0.02 0.02 95 1015.8
20260905163024 70 84 1.0 7.0 0.00 0.02 0.02 95 1015.6
20260905161523 70 85 0.0 4.0 0.00 0.02 0.02 96 1015.6